Weather reports worldwide

Advertisment
Shobdon, United Kingdom (3520): temperature & dewpoint: 24.09.2020 08:00:00 - 30.09.2020 08:00:00 (BST)Shobdon, United Kingdom (3520): temperature -20cm & temperature -100cm: 24.09.2020 08:00:00 - 30.09.2020 08:00:00 (BST)Shobdon, United Kingdom (3520): wind speed & gusts: 24.09.2020 08:00:00 - 30.09.2020 08:00:00 (BST)Shobdon, United Kingdom (3520): wind direction: 24.09.2020 08:00:00 - 30.09.2020 08:00:00 (BST)Shobdon, United Kingdom (3520): reduced air pressure: 24.09.2020 08:00:00 - 30.09.2020 08:00:00 (BST)Shobdon, United Kingdom (3520): visibility: 24.09.2020 08:00:00 - 30.09.2020 08:00:00 (BST)Shobdon, United Kingdom (3520): sunshine duration: 24.09.2020 08:00:00 - 30.09.2020 08:00:00 (BST)Shobdon, United Kingdom (3520): precipitation: 24.09.2020 08:00:00 - 30.09.2020 08:00:00 (BST)
Date & Time tt [°C] td [°C] tt -20cm [°C] tt -100cm [°C] ff [km/h] ff [kn] fx [km/h] fx [kn] dd ppp [hPa] vv [km] sd [min] rr [mm]
30.09.2020 08:00:00 11,3 9,2 - - 9 5 - - SE 1006,8 23 0 0,0
30.09.2020 07:00:00 11,1 8,9 - - 13 7 - - S 1007,4 26 0 0,0
30.09.2020 06:00:00 10,3 8,9 - - 8 4 - - S 1008,1 22 0 0,0
30.09.2020 05:00:00 9,8 8,9 - - 5 3 - - S 1008,9 21 0 0,0
30.09.2020 04:00:00 6,1 5,9 - - 2 1 - - S 1009,9 19 0 0,0
30.09.2020 03:00:00 6,6 6,4 - - 4 2 - - ENE 1011,0 12 0 0,0
30.09.2020 02:00:00 6,9 6,9 - - 2 1 - - ENE 1012,0 13 0 0,0
30.09.2020 01:00:00 6,6 6,6 - - 4 2 - - E 1012,9 17 - 0,0
30.09.2020 00:00:00 4,7 4,1 - - 2 1 - - NNE 1013,6 16 0 0,0
29.09.2020 23:00:00 6,1 5,5 - - 0 0 - - N 1014,2 20 0 0,0
29.09.2020 22:00:00 7,6 6,3 - - 4 2 - - WNW 1014,5 22 0 0,0
29.09.2020 21:00:00 8,9 8,3 - - 9 5 - - W 1014,7 24 0 0,0
29.09.2020 20:00:00 7,5 6,2 - - 4 2 - - W 1014,9 17 0 0,0
29.09.2020 19:00:00 10,5 7,5 - - 5 3 - - W 1015,0 28 6 0,0
29.09.2020 18:00:00 15,0 8,0 - - 8 4 - - SSW 1014,6 21 36 0,0
29.09.2020 17:00:00 16,3 8,7 - - 9 5 - - S 1014,8 30 42 0,0
29.09.2020 16:00:00 17,1 7,7 - - 2 1 - - SSW 1015,2 30 18 0,0
29.09.2020 15:00:00 15,9 8,3 - - 2 1 - - NNW 1015,6 28 6 0,0
29.09.2020 14:00:00 15,5 8,5 - - 4 2 - - SSW 1016,2 30 0 0,0
29.09.2020 13:00:00 14,9 8,3 - - 5 3 - - S 1016,7 27 42 0,0
29.09.2020 12:00:00 15,8 9,7 - - 4 2 - - SSE 1016,8 26 60 0,0
29.09.2020 11:00:00 14,1 10,2 - - 4 2 - - ESE 1017,2 26 54 0,0
29.09.2020 10:00:00 10,4 8,8 13,0 14,5 8 4 - - WNW 1017,5 23 42 0,0
29.09.2020 09:00:00 9,6 9,1 - - 8 4 - - NW 1017,1 24 54 0,0
29.09.2020 08:00:00 7,1 6,4 - - 5 3 - - N 1016,9 0,4 6 0,0
29.09.2020 07:00:00 8,1 8,0 - - 5 3 - - NW 1016,4 17 0 0,0
29.09.2020 06:00:00 5,2 4,8 - - 5 3 - - WNW 1016,1 11 0 0,0
29.09.2020 05:00:00 6,2 5,9 - - 4 2 - - NNW 1015,8 9 0 0,0
29.09.2020 04:00:00 6,6 5,7 - - 4 2 - - SSW 1015,6 5 0 0,0
29.09.2020 03:00:00 8,7 7,7 - - 4 2 - - NW 1015,5 10 0 0,0
29.09.2020 02:00:00 10,2 10,1 - - 8 4 - - NW 1015,1 24 0 0,0
29.09.2020 01:00:00 10,4 9,4 - - 5 3 - - NW 1015,1 18 - 0,0
29.09.2020 00:00:00 13,0 11,9 - - 2 1 - - N 1014,8 29 0 0,0
28.09.2020 23:00:00 14,0 12,7 - - 5 3 - - N 1014,5 30 0 0,0
28.09.2020 22:00:00 14,3 13,1 - - 13 7 - - N 1014,2 30 0 0,0
28.09.2020 21:00:00 14,3 13,8 - - 2 1 - - N 1013,5 5 0 0,0
28.09.2020 20:00:00 14,8 14,2 - - 4 2 - - E 1013,1 9 0 0,4
28.09.2020 19:00:00 15,1 14,4 - - 2 1 - - W 1012,8 9 0 0,0
28.09.2020 18:00:00 15,7 14,3 - - 9 5 - - WSW 1012,3 3,0 0 0,0
28.09.2020 17:00:00 16,8 14,0 - - 11 6 - - SW 1011,9 30 0 0,0
28.09.2020 16:00:00 17,0 14,3 - - 9 5 - - SW 1012,0 21 0 0,0
28.09.2020 15:00:00 16,2 12,9 - - 5 3 - - S 1012,3 18 0 0,0
28.09.2020 14:00:00 16,1 12,3 - - 5 3 - - SSE 1012,7 21 12 0,0
28.09.2020 13:00:00 14,1 11,3 - - 4 2 - - E 1013,2 23 0 0,0
28.09.2020 12:00:00 11,8 10,0 - - 5 3 - - E 1013,7 20 0 0,0
28.09.2020 11:00:00 9,1 8,0 - - 4 2 - - ESE 1013,8 21 0 0,0
28.09.2020 10:00:00 6,7 6,6 13,0 14,7 4 2 - - ESE 1014,0 25 0 0,0
28.09.2020 09:00:00 4,8 4,8 - - 2 1 - - ESE 1014,2 22 0 0,0
28.09.2020 08:00:00 2,6 2,6 - - 2 1 - - S 1014,0 15 0 0,0
28.09.2020 07:00:00 1,6 1,6 - - 2 1 - - NW 1014,0 11 0 0,0
28.09.2020 06:00:00 1,1 1,0 - - 4 2 - - WNW 1014,5 15 0 0,0
28.09.2020 05:00:00 1,3 1,3 - - 2 1 - - W 1014,8 11 0 0,0
28.09.2020 04:00:00 -0,3 -0,6 - - 2 1 - - SW 1015,2 10 0 0,0
28.09.2020 03:00:00 0,4 0,1 - - 2 1 - - NNE 1016,0 16 0 0,0
28.09.2020 02:00:00 0,7 0,3 - - 2 1 - - S 1016,3 18 0 0,0
28.09.2020 01:00:00 1,1 0,6 - - 4 2 - - W 1016,6 16 - 0,0
28.09.2020 00:00:00 2,4 1,9 - - 2 1 - - W 1016,5 19 0 0,0
27.09.2020 23:00:00 3,1 2,4 - - 2 1 - - SE 1016,6 16 0 0,0
27.09.2020 22:00:00 4,0 3,2 - - 4 2 - - W 1016,7 4,1 0 0,0
27.09.2020 21:00:00 6,0 4,6 - - 5 3 - - NNE 1016,0 24 0 0,0
27.09.2020 20:00:00 8,5 6,0 - - 9 5 - - NW 1015,8 28 0 0,0
27.09.2020 19:00:00 10,4 5,7 - - 9 5 - - NW 1015,2 30 30 0,0
27.09.2020 18:00:00 14,0 4,4 - - 5 3 - - N 1014,7 30 60 0,0
27.09.2020 17:00:00 15,9 3,8 - - 8 4 - - N 1014,5 30 60 0,0
27.09.2020 16:00:00 15,7 3,9 - - 13 7 - - NNW 1014,8 35 60 0,0
27.09.2020 15:00:00 15,2 3,4 - - 13 7 - - NNW 1015,4 35 60 0,0
27.09.2020 14:00:00 14,7 3,1 - - 15 8 - - NNW 1015,9 35 60 0,0
27.09.2020 13:00:00 13,4 3,8 - - 13 7 - - N 1016,3 28 60 0,0
27.09.2020 12:00:00 12,4 5,6 - - 8 4 - - N 1016,5 24 60 0,0
27.09.2020 11:00:00 10,4 4,3 - - 15 8 - - NNW 1016,8 25 54 0,0
27.09.2020 10:00:00 8,6 3,9 - - 13 7 - - N 1017,1 22 42 0,0
27.09.2020 09:00:00 7,6 3,9 - - 8 4 - - NW 1016,9 24 36 0,0
27.09.2020 08:00:00 5,8 3,3 - - 4 2 - - NNW 1016,7 22 18 0,0
27.09.2020 07:00:00 5,7 2,8 - - 8 4 - - NNW 1016,9 22 0 0,0
27.09.2020 06:00:00 6,9 3,0 - - 9 5 - - NNW 1016,8 23 0 0,0
27.09.2020 05:00:00 7,2 2,9 - - 9 5 - - NNW 1016,6 24 0 0,0
27.09.2020 04:00:00 7,9 3,7 - - 11 6 - - NNW 1017,2 24 0 0,0
27.09.2020 03:00:00 7,0 3,4 - - 9 5 - - NW 1017,2 23 0 0,0
27.09.2020 02:00:00 8,1 3,6 - - 9 5 - - NNW 1017,2 24 0 0,0
27.09.2020 01:00:00 8,5 3,9 - - 8 4 - - NNW 1017,5 24 - 0,0
27.09.2020 00:00:00 8,4 3,7 - - 8 4 - - NNW 1017,4 25 0 0,0
26.09.2020 23:00:00 9,5 3,9 - - 8 4 - - N 1017,4 27 0 0,0
26.09.2020 22:00:00 10,5 4,9 - - 8 4 - - N 1017,3 29 0 0,0
26.09.2020 21:00:00 10,5 4,8 - - 11 6 - - NNW 1017,1 30 0 0,0
26.09.2020 20:00:00 10,3 4,7 - - 11 6 - - N 1016,8 30 0 0,0
26.09.2020 19:00:00 10,7 4,7 - - 11 6 - - N 1016,6 35 0 0,0
26.09.2020 18:00:00 11,0 4,2 - - 13 7 - - NNE 1016,3 35 12 0,0
26.09.2020 17:00:00 11,5 3,6 - - 13 7 - - N 1016,0 30 42 0,0
26.09.2020 16:00:00 12,0 3,4 - - 16 9 - - N 1015,7 35 54 0,0
26.09.2020 15:00:00 11,8 2,5 - - 18 10 - - NNE 1015,3 35 48 0,0
26.09.2020 14:00:00 12,6 3,2 - - 18 10 46 25 N 1014,9 40 54 0,0
26.09.2020 13:00:00 11,6 1,7 - - 22 12 - - N 1015,1 30 36 0,0
26.09.2020 12:00:00 11,2 2,3 - - 16 9 - - N 1015,1 35 42 0,0
26.09.2020 11:00:00 9,9 2,2 - - 18 10 - - N 1015,1 35 42 0,0
26.09.2020 10:00:00 9,1 3,1 - - 16 9 - - N 1014,6 35 54 0,0
26.09.2020 09:00:00 8,4 3,4 - - 8 4 - - N 1014,4 30 60 0,0
26.09.2020 08:00:00 5,9 2,9 - - 8 4 - - NW 1014,2 30 18 0,0
26.09.2020 07:00:00 4,5 2,3 - - 8 4 - - NW 1013,8 30 0 0,0
26.09.2020 06:00:00 3,7 2,4 - - 5 3 - - NW 1014,0 30 0 0,0
26.09.2020 05:00:00 4,5 3,2 - - 9 5 - - WNW 1013,7 35 0 0,0
26.09.2020 04:00:00 4,8 2,8 - - 8 4 - - NW 1013,4 35 0 0,0
26.09.2020 03:00:00 7,0 3,5 - - 8 4 - - NNW 1013,7 35 0 0,0
26.09.2020 02:00:00 6,1 3,0 - - 4 2 - - WNW 1013,3 35 0 0,0
26.09.2020 01:00:00 5,4 3,3 - - 8 4 - - NW 1013,4 29 - 0,0
26.09.2020 00:00:00 7,9 4,4 - - 9 5 - - NW 1013,2 30 0 0,0
25.09.2020 23:00:00 9,1 5,1 - - 9 5 - - NNW 1013,5 30 0 0,0
25.09.2020 22:00:00 8,2 4,9 - - 8 4 - - WNW 1013,1 30 0 0,0
25.09.2020 21:00:00 8,5 5,1 - - 8 4 - - NW 1012,8 30 0 0,0
25.09.2020 20:00:00 9,2 4,9 - - 11 6 - - WNW 1012,1 35 0 0,0
25.09.2020 19:00:00 10,6 3,8 - - 13 7 - - WNW 1011,4 40 6 0,0
25.09.2020 18:00:00 12,6 2,5 - - 18 10 - - NNW 1010,4 35 54 0,0
25.09.2020 17:00:00 13,0 3,7 - - 21 11 52 28 NNW 1010,2 35 54 0,0
25.09.2020 16:00:00 14,0 3,3 - - 24 13 52 28 NNW 1009,9 35 48 0,0
25.09.2020 15:00:00 13,1 3,0 - - 22 12 - - NNW 1009,6 35 36 0,0
25.09.2020 14:00:00 13,8 5,5 - - 21 11 - - NNW 1008,8 35 42 0,0
25.09.2020 13:00:00 13,5 5,2 - - 21 11 54 29 NNW 1008,2 19 48 0,0
25.09.2020 12:00:00 12,8 3,1 - - 22 12 - - NNW 1007,5 16 54 0,0
25.09.2020 11:00:00 12,1 4,8 - - 13 7 - - NNW 1006,9 30 60 0,0
25.09.2020 10:00:00 10,8 4,8 14,5 15,7 18 10 - - NNW 1006,1 30 60 0,0
25.09.2020 09:00:00 9,3 3,6 - - 15 8 - - NNW 1005,5 30 24 0,0
25.09.2020 08:00:00 7,4 4,1 - - 9 5 - - NW 1004,0 30 0 0,0
25.09.2020 07:00:00 7,2 4,3 - - 9 5 - - NNW 1003,2 30 0 0,0
25.09.2020 06:00:00 7,8 4,0 - - 15 8 - - NNW 1002,4 35 0 0,0
25.09.2020 05:00:00 7,6 5,3 - - 13 7 - - NNW 1001,2 30 0 0,0
25.09.2020 04:00:00 7,3 5,4 - - 9 5 - - NW 1000,1 25 0 0,0
25.09.2020 03:00:00 6,9 4,8 - - 13 7 - - NNW 999,4 27 0 0,0
25.09.2020 02:00:00 7,2 4,9 - - 16 9 - - NNW 998,1 30 0 0,0
25.09.2020 01:00:00 7,5 5,3 - - 13 7 - - NNW 997,2 26 - 0,0
25.09.2020 00:00:00 7,6 5,5 - - 9 5 - - NNW 996,5 40 0 0,0
24.09.2020 23:00:00 7,9 6,4 - - 8 4 - - N 995,8 35 0 0,0
24.09.2020 22:00:00 6,5 5,6 - - 4 2 - - NNW 995,2 30 0 0,0
24.09.2020 21:00:00 7,2 6,0 - - 5 3 - - WNW 994,4 35 0 0,2
24.09.2020 20:00:00 7,9 6,7 - - 11 6 - - N 993,4 15 0 1,2
24.09.2020 19:00:00 8,4 7,1 - - 8 4 - - NNW 993,1 22 0 0,6
24.09.2020 18:00:00 9,6 7,2 - - 5 3 - - NE 992,3 35 0 0,0
24.09.2020 17:00:00 10,1 5,8 - - 5 3 - - SSW 992,3 40 12 0,2
24.09.2020 16:00:00 11,8 5,6 - - 11 6 - - S 992,1 35 48 0,0
24.09.2020 15:00:00 11,6 6,0 - - 16 9 - - SSW 992,3 30 36 0,0
24.09.2020 14:00:00 9,5 7,9 - - 5 3 - - S 993,2 35 18 0,0
24.09.2020 13:00:00 7,4 6,0 - - 9 5 - - WNW 993,6 35 0 2,4
24.09.2020 12:00:00 11,1 6,5 - - 16 9 - - S 993,1 35 42 0,0
24.09.2020 11:00:00 9,2 5,4 - - 13 7 - - SSW 993,4 35 6 0,0
24.09.2020 10:00:00 9,7 7,2 15,2 15,7 16 9 - - SW 993,5 29 18 0,6
24.09.2020 09:00:00 9,3 7,3 - - 13 7 - - WSW 992,9 12 24 0,0
24.09.2020 08:00:00 6,8 6,4 - - 2 1 - - ESE 992,8 27 0 0,2

tt = temperature
td = dewpoint
tt -20cm = temperature -20cm
tt -100cm = temperature -100cm
ff = wind speed
fx = gusts
dd = wind direction
ppp = reduced air pressure
vv = visibility
sd = sunshine duration
rr = precipitation

Next stations